Flag for Brazil Weather past 2 weeks in Santarém, Pará, Brazil

Now
79 °F

Passing clouds.


Feels Like: 82 °F
Forecast: N/A
Wind: 3 mph from Southeast

Location: Santarem-Aeroporto

Current Time: May 29, 2015 at 8:20:59 PM

Latest Report: May 29, 2015 at 8:00 PM


Visibility: N/A

Pressure: 29.77 "Hg

Humidity: 89%

Dew point: 75 °F

Location of SantarémLocation

Historic Weather in Santarém — Graph

°F

Santarém temperature yesterday

Maximum temperature yesterday: 86 °F (at 1:00 PM)
Minimum temperature yesterday: 75 °F (at 2:00 AM)
Average temperature yesterday: 80 °F

Past Weeks' High & Low Weather Summary

 TemperatureHumidityPressure
High88 °F (May 15, 1:00 PM)100% (May 14, 10:00 PM)29.98 "Hg (May 14, 10:00 PM)
Low37 °F (May 19, 8:00 AM)24% (May 18, 9:00 AM)29.74 "Hg (May 28, 5:00 PM)
Average80 °F89%29.88 "Hg
* Reported May 14 7:00 PM — May 29 7:00 PM, Santarém, Weather by CustomWeather, © 2015

Note: Actual official high and low records may vary slightly from our data, if they occured in-between our weather recording intervals... More about our weather records

Advertising

Santarém weather history for previous 24 hours

 ConditionsComfort  
Time TempWeatherWind HumidityBarometerVisibility
7:00 PM
Fri, May 29
81 °FScattered clouds.5 mph84%29.77 "HgN/A
6:00 PM84 °FScattered clouds.7 mph79%29.74 "HgN/A
5:00 PM86 °FPassing clouds.7 mph70%29.74 "HgN/A
4:00 PM88 °FPassing clouds.12 mph70%29.74 "HgN/A
3:00 PM86 °FScattered clouds.10 mph75%29.77 "HgN/A
2:00 PM86 °FScattered clouds.8 mph75%29.80 "HgN/A
1:00 PM86 °FScattered clouds.12 mph75%29.86 "HgN/A
12:00 PM84 °FScattered clouds.10 mph84%29.86 "HgN/A
11:00 AM82 °FPartly sunny.13 mph84%29.89 "HgN/A
10:00 AM81 °FPartly sunny.7 mph89%29.89 "HgN/A
9:00 AM82 °FPartly sunny.10 mph84%29.89 "HgN/A
8:00 AM81 °FPartly sunny.8 mph89%29.86 "HgN/A
7:00 AM77 °FPassing clouds.3 mph100%29.83 "HgN/A
6:00 AM77 °FPassing clouds.3 mph94%29.83 "HgN/A
5:00 AM77 °FPassing clouds.5 mph100%29.80 "HgN/A
4:00 AM79 °FPassing clouds.6 mph94%29.80 "HgN/A
3:00 AM77 °FPassing clouds.No wind94%29.83 "HgN/A
2:00 AM75 °FPassing clouds.2 mph100%29.83 "HgN/A
1:00 AM75 °FPassing clouds.No wind100%29.83 "HgN/A
12:00 AM75 °FClear.No wind100%29.86 "Hg10 mi
11:00 PM
Thu, May 28
77 °FClear.No wind94%29.86 "Hg10 mi
10:00 PM77 °FClear.No wind94%29.86 "Hg10 mi
9:00 PM79 °FClear.2 mph94%29.83 "Hg10 mi
8:00 PM81 °FClear.3 mph84%29.80 "Hg10 mi
Weather by CustomWeather, © 2015

See weather overviewHow to use our weather pages